• In Belgium
  • List of Countries
  • For 7 days
  • Water Temperature
  • Satellite Maps
  • Weather Map
  • Weather Widgets
  • user-avatar
    Login

    Hourly Weather Irvington

    Today, 26 September, Wednesday

    Time Temperature Precipitation Wind Pressure Humidity
    00:00 +23°C° 0.4 mm 2 mps 759 mmHg 97%
    01:00 +23°C° 0.4 mm 2 mps 759 mmHg 97%
    02:00 +23°C° 0 mm 2 mps 759 mmHg 98%
    03:00 +23°C° 0 mm 2 mps 758 mmHg 98%
    04:00 +23°C° 0 mm 2 mps 757 mmHg 98%
    05:00 +23°C° 0 mm 2 mps 757 mmHg 98%
    06:00 +23°C° 0 mm 2 mps 757 mmHg 98%
    07:00 +23°C° 0 mm 2 mps 757 mmHg 98%
    08:00 +25°C° 0 mm 3 mps 757 mmHg 92%
    09:00 +26°C° 0 mm 3 mps 756 mmHg 86%
    10:00 +27°C° 0 mm 3 mps 756 mmHg 80%
    11:00 +29°C° 0 mm 4 mps 756 mmHg 73%
    12:00 +30°C° 0 mm 4 mps 755 mmHg 66%
    13:00 +32°C° 0 mm 4 mps 755 mmHg 59%
    14:00 +32°C° 0.6 mm 4 mps 754 mmHg 63%
    15:00 +30°C° 0.6 mm 4 mps 754 mmHg 67%
    16:00 +29°C° 0.6 mm 4 mps 753 mmHg 71%
    17:00 +28°C° 2 mm 4 mps 754 mmHg 75%
    18:00 +27°C° 2 mm 4 mps 754 mmHg 79%
    19:00 +26°C° 2 mm 4 mps 754 mmHg 82%
    20:00 +25°C° 0.2 mm 4 mps 755 mmHg 82%
    21:00 +23°C° 0.2 mm 4 mps 755 mmHg 83%
    22:00 +22°C° 0.2 mm 4 mps 756 mmHg 83%
    23:00 +21°C° 0.1 mm 4 mps 756 mmHg 81%

    Tomorrow, 27 September, Thursday

    Time Temperature Precipitation Wind Pressure Humidity
    00:00 +20°C° 0.1 mm 4 mps 757 mmHg 79%
    01:00 +18°C° 0.1 mm 4 mps 757 mmHg 77%
    02:00 +18°C° 0 mm 4 mps 758 mmHg 74%
    03:00 +17°C° 0 mm 4 mps 758 mmHg 72%
    04:00 +15°C° 0 mm 4 mps 758 mmHg 70%
    05:00 +15°C° 0 mm 4 mps 759 mmHg 69%
    06:00 +15°C° 0 mm 4 mps 759 mmHg 69%
    07:00 +14°C° 0 mm 4 mps 760 mmHg 68%
    08:00 +17°C° 0 mm 4 mps 760 mmHg 62%
    09:00 +18°C° 0 mm 4 mps 761 mmHg 55%
    10:00 +19°C° 0 mm 4 mps 761 mmHg 49%
    11:00 +20°C° 0 mm 3 mps 761 mmHg 45%
    12:00 +21°C° 0 mm 3 mps 761 mmHg 41%
    13:00 +23°C° 0 mm 2 mps 761 mmHg 38%
    14:00 +23°C° 0 mm 2 mps 760 mmHg 39%
    15:00 +21°C° 0 mm 2 mps 760 mmHg 41%
    16:00 +21°C° 0 mm 2 mps 760 mmHg 43%
    17:00 +20°C° 0 mm 2 mps 760 mmHg 46%
    18:00 +20°C° 0 mm 3 mps 760 mmHg 48%
    19:00 +19°C° 0 mm 3 mps 760 mmHg 51%
    20:00 +19°C° 0 mm 2 mps 760 mmHg 55%
    21:00 +18°C° 0 mm 2 mps 760 mmHg 60%
    22:00 +18°C° 0 mm 2 mps 760 mmHg 64%
    23:00 +18°C° 0 mm 2 mps 760 mmHg 66%

    Day after tomorrow, 28 September, Friday

    Time Temperature Precipitation Wind Pressure Humidity
    00:00 +18°C° 0 mm 2 mps 760 mmHg 68%
    01:00 +19°C° 0 mm 1 mps 760 mmHg 71%
    02:00 +18°C° 0 mm 2 mps 760 mmHg 72%
    03:00 +17°C° 0 mm 2 mps 760 mmHg 73%
    04:00 +17°C° 0 mm 2 mps 760 mmHg 74%
    05:00 +17°C° 0.5 mm 3 mps 760 mmHg 76%
    06:00 +17°C° 0.5 mm 3 mps 760 mmHg 79%
    07:00 +16°C° 0.5 mm 3 mps 760 mmHg 81%
    08:00 +17°C° 0.2 mm 3 mps 760 mmHg 81%
    09:00 +17°C° 0.2 mm 3 mps 760 mmHg 81%
    10:00 +17°C° 0.2 mm 3 mps 760 mmHg 81%
    11:00 +17°C° 0.1 mm 3 mps 759 mmHg 82%
    12:00 +17°C° 0.1 mm 3 mps 759 mmHg 83%
    13:00 +17°C° 0.1 mm 2 mps 759 mmHg 84%
    14:00 +17°C° 0.1 mm 2 mps 758 mmHg 84%
    15:00 +17°C° 0.1 mm 2 mps 758 mmHg 85%
    16:00 +18°C° 0.1 mm 2 mps 758 mmHg 85%
    17:00 +17°C° 0 mm 2 mps 758 mmHg 85%
    18:00 +18°C° 0 mm 1 mps 758 mmHg 86%
    19:00 +18°C° 0 mm 1 mps 759 mmHg 86%
    20:00 +18°C° 0 mm 1 mps 758 mmHg 86%
    21:00 +18°C° 0 mm 1 mps 758 mmHg 87%
    22:00 +16°C° 0 mm 1 mps 758 mmHg 87%
    23:00 +16°C° 0 mm 1 mps 758 mmHg 88%

    29 September, Saturday

    Time Temperature Precipitation Wind Pressure Humidity
    00:00 +16°C° 0 mm 1 mps 758 mmHg 88%
    01:00 +15°C° 0 mm 2 mps 758 mmHg 89%
    02:00 +15°C° 0 mm 2 mps 758 mmHg 89%
    03:00 +15°C° 0 mm 2 mps 758 mmHg 89%
    04:00 +15°C° 0 mm 2 mps 758 mmHg 89%
    05:00 +14°C° 0 mm 3 mps 759 mmHg 87%
    06:00 +14°C° 0 mm 4 mps 759 mmHg 85%
    07:00 +14°C° 0 mm 4 mps 760 mmHg 83%
    08:00 +15°C° 0 mm 4 mps 760 mmHg 74%
    09:00 +18°C° 0 mm 4 mps 760 mmHg 65%
    10:00 +19°C° 0 mm 4 mps 761 mmHg 56%
    11:00 +20°C° 0 mm 4 mps 761 mmHg 51%
    12:00 +20°C° 0 mm 4 mps 760 mmHg 47%
    13:00 +21°C° 0 mm 4 mps 760 mmHg 42%
    14:00 +21°C° 0 mm 4 mps 760 mmHg 43%
    15:00 +21°C° 0 mm 4 mps 760 mmHg 44%
    16:00 +20°C° 0 mm 4 mps 761 mmHg 45%
    17:00 +19°C° 0 mm 3 mps 761 mmHg 49%
    18:00 +17°C° 0 mm 3 mps 762 mmHg 53%
    19:00 +16°C° 0 mm 3 mps 762 mmHg 57%
    20:00 +14°C° 0 mm 3 mps 763 mmHg 59%
    21:00 +13°C° 0 mm 3 mps 763 mmHg 60%
    22:00 +13°C° 0 mm 3 mps 763 mmHg 62%
    23:00 +12°C° 0 mm 3 mps 763 mmHg 62%

    30 September, Sunday

    Time Temperature Precipitation Wind Pressure Humidity
    00:00 +12°C° 0 mm 3 mps 763 mmHg 63%
    01:00 +12°C° 0 mm 2 mps 764 mmHg 64%
    02:00 +12°C° 0 mm 2 mps 764 mmHg 64%
    03:00 +10°C° 0 mm 2 mps 764 mmHg 65%
    04:00 +10°C° 0 mm 2 mps 765 mmHg 66%
    05:00 +10°C° 0 mm 2 mps 765 mmHg 64%
    06:00 +10°C° 0 mm 2 mps 765 mmHg 63%
    07:00 +12°C° 0 mm 2 mps 765 mmHg 62%
    08:00 +14°C° 0 mm 1 mps 766 mmHg 55%
    09:00 +18°C° 0 mm 1 mps 766 mmHg 47%
    10:00 +20°C° 0 mm 1 mps 766 mmHg 39%
    11:00 +21°C° 0 mm 1 mps 766 mmHg 37%
    12:00 +22°C° 0 mm 1 mps 765 mmHg 36%
    13:00 +23°C° 0 mm 1 mps 765 mmHg 34%
    14:00 +23°C° 0 mm 1 mps 765 mmHg 36%
    15:00 +21°C° 0 mm 2 mps 765 mmHg 37%
    16:00 +21°C° 0 mm 2 mps 764 mmHg 39%
    17:00 +20°C° 0 mm 2 mps 765 mmHg 44%
    18:00 +18°C° 0 mm 2 mps 765 mmHg 48%
    19:00 +17°C° 0 mm 2 mps 765 mmHg 53%
    20:00 +16°C° 0 mm 3 mps 765 mmHg 55%
    21:00 +16°C° 0 mm 3 mps 765 mmHg 58%
    22:00 +16°C° 0 mm 3 mps 765 mmHg 60%
    23:00 +16°C° 0 mm 3 mps 765 mmHg 62%

    1 October, Monday

    Time Temperature Precipitation Wind Pressure Humidity
    00:00 +14°C° 0 mm 3 mps 765 mmHg 65%
    01:00 +14°C° 0 mm 3 mps 765 mmHg 67%
    02:00 +14°C° 0 mm 3 mps 765 mmHg 69%
    03:00 +14°C° 0 mm 3 mps 765 mmHg 72%
    04:00 +14°C° 0 mm 3 mps 765 mmHg 74%
    05:00 +14°C° 0 mm 3 mps 765 mmHg 75%
    06:00 +16°C° 0 mm 3 mps 765 mmHg 77%
    07:00 +16°C° 0 mm 3 mps 765 mmHg 78%
    08:00 +18°C° 0 mm 3 mps 765 mmHg 74%
    09:00 +20°C° 0 mm 3 mps 765 mmHg 69%
    10:00 +22°C° 0 mm 3 mps 765 mmHg 64%
    11:00 +24°C° 0 mm 3 mps 765 mmHg 60%
    12:00 +25°C° 0 mm 2 mps 765 mmHg 56%
    13:00 +27°C° 0 mm 2 mps 764 mmHg 52%
    14:00 +27°C° 0 mm 2 mps 764 mmHg 53%
    15:00 +27°C° 0 mm 2 mps 764 mmHg 55%
    16:00 +27°C° 0 mm 2 mps 764 mmHg 56%
    17:00 +25°C° 0 mm 2 mps 764 mmHg 61%
    18:00 +24°C° 0 mm 2 mps 764 mmHg 66%
    19:00 +21°C° 0 mm 2 mps 764 mmHg 71%
    20:00 +21°C° 0 mm 2 mps 765 mmHg 72%
    21:00 +20°C° 0 mm 2 mps 765 mmHg 73%
    22:00 +20°C° 0 mm 2 mps 765 mmHg 74%
    23:00 +19°C° 0 mm 2 mps 765 mmHg 75%
    Show more